GW2660 Weather Reports


time (UTC)temp
C
wind
direction
speed
KPH
gust
KPH
rain 1hr
cm
rain 24hr
cm
rain mn
cm
humidity
%
barometer
mb
20260906124139 21 79 1.6 11.3 0.00 0.00 0.00 94 1020.8
20260906123638 21 63 3.2 11.3 0.00 0.00 0.00 94 1020.5
20260906123133 21 62 6.4 9.7 0.00 0.00 0.00 95 1020.6
20260906122632 21 59 3.2 6.4 0.00 0.00 0.00 96 1020.6
20260906122128 21 53 0.0 1.6 0.00 0.00 0.00 98 1020.7
20260906121624 20 89 1.6 8.0 0.00 0.00 0.00 99 1020.6
20260906121120 20 60 4.8 8.0 0.00 0.00 0.00 99 1020.4
20260906120615 20 333 0.0 4.8 0.00 0.00 0.00 99 1020.5
20260906120112 20 60 4.8 9.7 0.00 0.00 0.00 99 1020.1
20260906115607 20 18 0.0 6.4 0.00 0.00 0.00 99 1020.1
20260906115102 19 53 6.4 11.3 0.00 0.00 0.00 99 1020.1
20260906114556 19 68 1.6 4.8 0.00 0.00 0.00 99 1020.1
20260906114051 19 27 0.0 6.4 0.00 0.00 0.00 99 1020.0
20260906113550 19 41 3.2 3.2 0.00 0.00 0.00 99 1019.8
20260906113045 19 77 3.2 3.2 0.00 0.00 0.00 99 1019.9
20260906112540 19 142 0.0 3.2 0.00 0.00 0.00 99 1019.4
20260906112037 19 351 0.0 4.8 0.00 0.00 0.00 99 1019.7
20260906111536 19 61 8.0 9.7 0.00 0.00 0.00 99 1019.6
20260906111032 19 70 4.8 8.0 0.00 0.00 0.00 99 1019.3
20260906110531 19 50 0.0 12.9 0.00 0.00 0.00 99 1019.1
20260906110031 19 44 0.0 4.8 0.00 0.00 0.00 99 1019.6
20260906105526 19 167 0.0 1.6 0.00 0.00 0.00 99 1019.4
20260906105022 19 29 0.0 3.2 0.00 0.00 0.00 99 1019.0
20260906104520 19 60 0.0 1.6 0.00 0.00 0.00 99 1019.2
20260906104015 19 38 0.0 1.6 0.00 0.00 0.00 99 1019.2
20260906103513 20 89 0.0 3.2 0.00 0.00 0.00 99 1019.0
20260906103009 20 81 3.2 3.2 0.00 0.00 0.00 99 1018.9
20260906102508 20 152 0.0 1.6 0.00 0.00 0.00 99 1018.9
20260906102003 20 104 4.8 4.8 0.00 0.00 0.00 99 1018.9
20260906101458 20 61 0.0 9.7 0.00 0.00 0.00 99 1018.9
20260906100953 20 150 0.0 4.8 0.00 0.00 0.00 99 1019.0
20260906100448 20 7 0.0 4.8 0.00 0.00 0.00 99 1019.0
20260906095942 20 75 0.0 4.8 0.00 0.00 0.00 99 1019.1
20260906095438 20 75 0.0 3.2 0.00 0.00 0.00 99 1018.9
20260906094932 20 29 0.0 1.6 0.00 0.00 0.00 99 1018.9
20260906094426 20 30 0.0 6.4 0.00 0.00 0.00 99 1018.8
20260906093922 20 27 3.2 4.8 0.00 0.00 0.00 99 1018.7
20260906093418 20 75 3.2 6.4 0.00 0.00 0.00 98 1018.6
20260906092913 20 351 0.0 1.6 0.00 0.00 0.00 98 1018.9
20260906092413 20 141 0.0 6.4 0.00 0.00 0.00 98 1018.8
20260906091908 20 52 0.0 6.4 0.00 0.00 0.00 98 1018.7
20260906091404 20 80 0.0 3.2 0.00 0.00 0.00 98 1018.7
20260906090901 20 64 4.8 8.0 0.00 0.00 0.00 98 1018.6
20260906090400 20 37 0.0 3.2 0.00 0.00 0.00 98 1018.6
20260906085854 20 309 0.0 1.6 0.00 0.00 0.00 97 1018.5
20260906085348 20 126 0.0 4.8 0.00 0.00 0.00 97 1018.7
20260906084843 20 72 1.6 6.4 0.00 0.00 0.00 97 1018.7
20260906084343 20 52 4.8 8.0 0.00 0.00 0.00 97 1018.8
20260906083837 21 4 0.0 8.0 0.00 0.00 0.00 97 1018.8
20260906083332 20 45 3.2 8.0 0.00 0.00 0.00 97 1018.6
20260906082826 21 45 3.2 8.0 0.00 0.00 0.00 97 1018.8
20260906082322 21 327 0.0 8.0 0.00 0.00 0.00 97 1018.6
20260906081818 20 85 0.0 3.2 0.00 0.00 0.00 97 1018.6
20260906081313 21 116 1.6 11.3 0.00 0.00 0.00 96 1018.7
20260906080809 21 104 0.0 4.8 0.00 0.00 0.00 96 1018.7
20260906080305 21 72 1.6 4.8 0.00 0.00 0.00 96 1018.6
20260906075805 21 51 4.8 4.8 0.00 0.00 0.00 96 1018.7
20260906075306 21 89 0.0 8.0 0.00 0.00 0.00 96 1018.9
20260906074800 21 15 0.0 6.4 0.00 0.00 0.00 96 1018.9
20260906074259 21 55 4.8 6.4 0.00 0.00 0.00 95 1019.2
20260906073759 21 46 3.2 8.0 0.00 0.00 0.00 95 1018.9
20260906073253 21 57 0.0 3.2 0.00 0.00 0.00 95 1018.8
20260906072750 21 53 3.2 9.7 0.00 0.00 0.00 95 1018.9
20260906072245 21 78 3.2 6.4 0.00 0.00 0.00 95 1018.9
20260906071741 21 26 1.6 3.2 0.00 0.00 0.00 94 1019.0
20260906071241 21 64 4.8 8.0 0.00 0.00 0.00 94 1018.9
20260906070737 21 89 0.0 6.4 0.00 0.00 0.00 94 1018.9
20260906070233 21 303 0.0 4.8 0.00 0.00 0.00 94 1019.0
20260906065732 21 41 6.4 9.7 0.00 0.00 0.00 93 1019.1
20260906065228 21 349 0.0 6.4 0.00 0.00 0.00 93 1019.0
20260906064723 21 64 1.6 4.8 0.00 0.00 0.00 93 1018.9
20260906064219 22 48 0.0 6.4 0.00 0.00 0.00 92 1019.0
20260906063714 22 68 0.0 6.4 0.00 0.00 0.00 92 1018.9
20260906063209 22 88 1.6 8.0 0.00 0.00 0.00 92 1019.0
20260906062705 22 51 3.2 6.4 0.00 0.00 0.00 92 1018.8
20260906062204 22 133 0.0 9.7 0.00 0.00 0.00 92 1019.0
20260906061700 22 86 3.2 3.2 0.00 0.00 0.00 92 1019.2
20260906061155 22 67 3.2 8.0 0.00 0.00 0.00 92 1019.2
20260906060651 22 60 1.6 8.0 0.00 0.00 0.00 92 1019.1
20260906060148 22 100 1.6 4.8 0.00 0.00 0.00 92 1019.0
20260906055644 22 65 4.8 8.0 0.00 0.00 0.00 92 1018.9
20260906055138 22 65 3.2 9.7 0.00 0.00 0.00 92 1019.0
20260906054634 22 104 0.0 11.3 0.00 0.00 0.00 92 1018.8
20260906054129 22 51 8.0 11.3 0.00 0.00 0.00 92 1018.8
20260906053625 22 5 0.0 6.4 0.00 0.00 0.00 92 1018.8
20260906053120 22 7 0.0 6.4 0.00 0.00 0.00 92 1018.7
20260906052616 22 5 0.0 8.0 0.00 0.00 0.00 91 1018.8
20260906052112 22 355 0.0 4.8 0.00 0.00 0.00 91 1018.7
20260906051608 22 117 1.6 4.8 0.00 0.00 0.00 91 1018.7
20260906051103 22 54 4.8 8.0 0.00 0.00 0.00 91 1018.7
20260906050558 22 64 4.8 8.0 0.00 0.00 0.00 91 1018.7
20260906050054 22 32 0.0 0.0 0.00 0.00 0.00 90 1018.6
20260906045551 22 49 1.6 11.3 0.00 0.00 0.00 90 1018.5
20260906045047 22 67 4.8 8.0 0.00 0.00 0.00 90 1018.5
20260906044543 22 3 3.2 11.3 0.00 0.00 0.00 90 1018.6
20260906044038 22 348 0.0 11.3 0.00 0.00 0.00 89 1018.5
20260906043534 22 71 3.2 4.8 0.00 0.00 0.00 89 1018.5
20260906043030 22 73 3.2 6.4 0.00 0.00 0.00 89 1018.3
20260906042528 22 46 4.8 9.7 0.00 0.00 0.00 89 1018.1
20260906042023 22 38 6.4 9.7 0.00 0.00 0.00 88 1018.2
20260906041520 22 60 3.2 6.4 0.00 0.00 0.00 88 1018.2
20260906041019 22 20 1.6 6.4 0.00 0.00 0.00 88 1018.2
20260906040514 22 67 11.3 16.1 0.00 0.00 0.00 88 1017.8
20260906040010 22 28 3.2 12.9 0.00 0.00 0.00 88 1018.0
20260906035504 22 104 0.0 8.0 0.00 0.00 0.00 88 1017.9
20260906034955 22 53 4.8 8.0 0.00 0.00 0.00 87 1017.8
20260906034454 22 51 6.4 9.7 0.00 0.00 0.00 88 1017.7
20260906033950 22 30 0.0 11.3 0.00 0.00 0.00 88 1017.8
20260906033444 22 75 3.2 8.0 0.00 0.00 0.00 88 1017.8
20260906032940 22 51 3.2 11.3 0.00 0.00 0.00 88 1017.9
20260906032436 22 62 0.0 11.3 0.00 0.00 0.00 88 1017.8
20260906031931 22 50 0.0 11.3 0.00 0.00 0.00 88 1017.9
20260906031426 22 65 1.6 8.0 0.00 0.00 0.00 88 1017.7
20260906030921 22 351 3.2 8.0 0.00 0.00 0.00 88 1017.8
20260906030416 22 113 12.9 20.9 0.00 0.00 0.00 88 1017.9
20260906025910 22 39 1.6 9.7 0.00 0.00 0.00 88 1017.9
20260906025405 22 49 11.3 14.5 0.00 0.00 0.00 88 1017.9
20260906024904 22 87 4.8 11.3 0.00 0.00 0.00 88 1017.8
20260906024403 22 356 0.0 9.7 0.00 0.00 0.00 88 1017.9
20260906023859 22 142 0.0 11.3 0.00 0.00 0.00 88 1017.9
20260906023355 22 80 4.8 4.8 0.00 0.00 0.00 88 1017.8
20260906022854 22 39 4.8 12.9 0.00 0.00 0.00 88 1017.8
20260906022349 22 54 4.8 11.3 0.00 0.00 0.00 88 1017.9
20260906021846 22 21 1.6 20.9 0.00 0.00 0.00 89 1018.0
20260906021344 22 36 0.0 14.5 0.00 0.00 0.00 89 1017.9
20260906020839 22 70 6.4 9.7 0.00 0.00 0.00 89 1017.9
20260906020339 22 31 1.6 14.5 0.00 0.00 0.00 88 1017.8
20260906015834 22 54 4.8 11.3 0.00 0.00 0.00 88 1017.9
20260906015333 22 70 8.0 14.5 0.00 0.00 0.00 88 1017.7
20260906014833 22 19 0.0 11.3 0.00 0.00 0.00 88 1017.6
20260906014327 22 40 4.8 12.9 0.00 0.00 0.00 88 1017.8
20260906013824 22 61 9.7 16.1 0.00 0.00 0.00 88 1017.9
20260906013319 22 53 8.0 14.5 0.00 0.00 0.00 88 1018.0
20260906012814 22 324 1.6 16.1 0.00 0.00 0.00 88 1017.7
20260906012309 22 348 3.2 14.5 0.00 0.00 0.00 88 1017.8
20260906011803 22 29 1.6 8.0 0.00 0.00 0.00 89 1017.7
20260906011258 22 78 4.8 9.7 0.00 0.00 0.00 89 1017.7
20260906010754 22 27 1.6 14.5 0.00 0.00 0.00 89 1017.8
20260906010250 22 293 0.0 16.1 0.00 0.00 0.00 89 1017.7
20260906005745 22 110 6.4 20.9 0.00 0.00 0.00 89 1017.9
20260906005244 22 75 6.4 11.3 0.00 0.00 0.00 89 1017.9
20260906004743 23 55 11.3 16.1 0.00 0.00 0.00 88 1017.9
20260906004238 23 326 0.0 14.5 0.00 0.00 0.00 88 1017.7
20260906003733 23 52 4.8 14.5 0.00 0.00 0.00 87 1017.6
20260906003228 23 46 3.2 14.5 0.00 0.00 0.00 87 1017.6
20260906002723 23 221 0.0 20.9 0.00 0.00 0.00 86 1017.4
20260906002218 24 76 4.8 19.3 0.00 0.00 0.00 86 1017.4
20260906001714 24 64 4.8 9.7 0.00 0.00 0.00 85 1017.2
20260906001214 24 79 11.3 14.5 0.00 0.00 0.00 85 1017.3
20260906000709 25 43 3.2 12.9 0.00 0.00 0.00 85 1017.2
20260906000204 25 56 4.8 16.1 0.00 0.00 0.00 85 1017.0
20260905235703 25 250 1.6 8.0 0.00 0.00 0.00 85 1016.7
20260905235158 25 16 1.6 8.0 0.00 0.00 0.00 85 1016.5
20260905234654 25 86 3.2 9.7 0.00 0.00 0.00 84 1016.4
20260905234149 25 44 8.0 16.1 0.00 0.00 0.00 83 1016.5
20260905233644 26 70 9.7 11.3 0.00 0.00 0.00 82 1016.5
20260905233143 26 91 4.8 11.3 0.00 0.00 0.00 81 1016.6
20260905232638 26 60 8.0 14.5 0.00 0.00 0.00 80 1016.6
20260905232134 26 1 1.6 6.4 0.00 0.00 0.00 80 1016.6
20260905231629 26 68 3.2 8.0 0.00 0.00 0.00 79 1016.6
20260905231126 27 57 4.8 8.0 0.00 0.00 0.00 77 1016.5
20260905230621 28 57 8.0 14.5 0.00 0.00 0.00 75 1016.4
20260905230118 27 61 8.0 11.3 0.00 0.00 0.00 75 1016.3
20260905225613 27 15 0.0 4.8 0.00 0.00 0.00 77 1016.3
20260905225108 27 1 0.0 9.7 0.00 0.00 0.00 75 1016.2
20260905224608 27 72 3.2 11.3 0.00 0.00 0.00 75 1016.1
20260905224107 28 64 1.6 9.7 0.00 0.00 0.00 75 1016.0
20260905223604 28 53 4.8 9.7 0.00 0.00 0.00 74 1016.0
20260905223101 27 45 4.8 9.7 0.00 0.00 0.00 76 1016.1
20260905222600 27 37 8.0 11.3 0.00 0.00 0.00 75 1016.2
20260905222056 28 71 3.2 16.1 0.00 0.00 0.00 74 1016.1
20260905221552 28 94 3.2 12.9 0.00 0.00 0.00 74 1016.1
20260905221048 28 55 8.0 8.0 0.00 0.00 0.00 73 1016.0
20260905220543 28 78 0.0 3.2 0.00 0.00 0.00 74 1015.9
20260905220039 28 63 0.0 16.1 0.00 0.00 0.00 76 1016.0
20260905215538 29 57 8.0 12.9 0.00 0.00 0.00 74 1015.9
20260905215035 30 14 0.0 8.0 0.00 0.00 0.00 74 1015.8
20260905214531 30 333 1.6 8.0 0.00 0.00 0.00 74 1016.3
20260905214025 28 37 0.0 11.3 0.00 0.00 0.00 75 1016.0
20260905213521 28 235 0.0 14.5 0.00 0.00 0.00 77 1016.1
20260905213016 27 89 0.0 11.3 0.00 0.00 0.00 79 1016.1
20260905212511 27 262 0.0 17.7 0.00 0.00 0.00 79 1015.9
20260905212010 27 43 6.4 12.9 0.00 0.00 0.00 77 1016.1
20260905211506 27 15 3.2 14.5 0.00 0.00 0.00 79 1016.2
20260905211002 29 38 3.2 4.8 0.00 0.00 0.00 74 1016.2
20260905210457 29 101 1.6 3.2 0.00 0.00 0.00 76 1016.2
20260905205956 28 34 3.2 4.8 0.00 0.00 0.00 78 1016.2
20260905205451 27 52 4.8 8.0 0.00 0.00 0.00 80 1016.3
20260905204949 27 56 4.8 9.7 0.00 0.00 0.00 79 1016.4
20260905204446 27 67 4.8 19.3 0.00 0.00 0.00 80 1016.3
20260905203945 28 49 4.8 9.7 0.00 0.00 0.00 78 1016.6
20260905203440 27 61 12.9 12.9 0.00 0.00 0.00 79 1016.5
20260905202936 27 37 3.2 12.9 0.00 0.00 0.00 80 1016.6
20260905202431 27 48 4.8 11.3 0.00 0.00 0.00 79 1016.4
20260905201926 27 56 4.8 11.3 0.00 0.00 0.00 79 1016.4
20260905201422 28 67 8.0 17.7 0.00 0.00 0.00 78 1016.5
20260905200921 29 35 4.8 22.5 0.00 0.00 0.00 76 1016.5
20260905200417 28 18 1.6 19.3 0.00 0.00 0.00 79 1016.4
20260905195915 28 97 12.9 22.5 0.00 0.00 0.00 79 1016.2
20260905195410 28 337 1.6 9.7 0.00 0.00 0.00 80 1016.4
20260905194906 28 49 9.7 14.5 0.00 0.00 0.00 78 1016.5
20260905194400 28 43 4.8 17.7 0.00 0.00 0.00 78 1016.4
20260905193900 28 44 3.2 8.0 0.00 0.00 0.00 77 1016.3
20260905193354 28 43 3.2 11.3 0.00 0.00 0.00 77 1016.3
20260905192850 29 234 1.6 8.0 0.00 0.00 0.00 75 1016.2
20260905192346 29 59 8.0 20.9 0.00 0.00 0.00 76 1016.2
20260905191845 30 19 4.8 17.7 0.00 0.00 0.00 74 1016.4
20260905191345 30 47 6.4 8.0 0.00 0.00 0.00 75 1016.3
20260905190843 31 66 16.1 25.7 0.00 0.00 0.00 71 1016.4
20260905190337 30 40 3.2 6.4 0.00 0.00 0.00 74 1016.2
20260905185836 29 41 3.2 17.7 0.00 0.00 0.00 76 1016.4
20260905185331 29 18 1.6 16.1 0.00 0.00 0.00 77 1016.4
20260905184830 31 37 4.8 11.3 0.00 0.00 0.00 73 1016.6
20260905184330 30 73 3.2 12.9 0.00 0.00 0.00 76 1016.4
20260905183828 30 54 6.4 20.9 0.00 0.00 0.00 76 1016.6
20260905183324 30 59 6.4 11.3 0.00 0.00 0.00 75 1016.6
20260905182823 30 125 3.2 9.7 0.00 0.00 0.00 76 1016.5
20260905182317 30 352 1.6 8.0 0.00 0.00 0.00 75 1016.4
20260905181813 29 342 1.6 19.3 0.00 0.00 0.00 77 1016.3
20260905181307 31 32 3.2 12.9 0.00 0.00 0.00 74 1016.4
20260905180806 31 137 3.2 6.4 0.00 0.00 0.00 73 1016.4
20260905180301 32 25 0.0 9.7 0.00 0.00 0.00 70 1016.5
20260905175756 31 304 0.0 3.2 0.00 0.00 0.00 72 1016.5
20260905175251 30 107 0.0 14.5 0.00 0.00 0.00 76 1016.4
20260905174746 30 19 3.2 17.7 0.00 0.00 0.00 75 1016.1
20260905174241 30 57 8.0 11.3 0.00 0.00 0.00 76 1016.1
20260905173737 30 312 0.0 8.0 0.00 0.00 0.00 76 1016.3
20260905173233 30 75 6.4 9.7 0.00 0.00 0.00 74 1016.4
20260905172727 30 98 4.8 11.3 0.00 0.00 0.00 77 1016.3
20260905172226 30 63 11.3 17.7 0.00 0.00 0.00 75 1016.3
20260905171717 30 48 8.0 16.1 0.00 0.00 0.00 77 1016.5
20260905171213 30 80 8.0 12.9 0.00 0.00 0.00 76 1016.5
20260905170710 30 231 0.0 3.2 0.00 0.00 0.00 77 1016.6
20260905170209 30 287 0.0 3.2 0.00 0.00 0.00 77 1016.4
20260905165709 30 70 6.4 14.5 0.00 0.00 0.00 76 1016.6
20260905165205 30 85 4.8 8.0 0.00 0.00 0.00 77 1016.6
20260905164659 30 45 8.0 14.5 0.00 0.00 0.00 78 1016.5
20260905164159 30 315 0.0 6.4 0.00 0.00 0.00 79 1016.7
20260905163655 30 320 1.6 11.3 0.00 0.00 0.00 77 1016.8
20260905163152 30 145 3.2 9.7 0.00 0.00 0.00 79 1016.7
20260905162648 30 12 1.6 11.3 0.00 0.00 0.00 79 1016.7
20260905162147 30 63 6.4 6.4 0.00 0.00 0.00 78 1016.7
20260905161641 30 58 8.0 9.7 0.00 0.00 0.00 77 1016.6
20260905161139 30 47 4.8 11.3 0.00 0.00 0.00 78 1016.7
20260905160638 29 11 1.6 8.0 0.00 0.00 0.00 80 1016.8
20260905160133 30 311 3.2 9.7 0.00 0.00 0.00 80 1016.8
20260905155633 30 45 6.4 9.7 0.00 0.00 0.00 76 1016.8
20260905155131 30 44 0.0 4.8 0.00 0.00 0.00 78 1016.5
20260905154626 29 38 3.2 12.9 0.00 0.00 0.00 78 1016.5
20260905154122 29 53 0.0 9.7 0.00 0.00 0.00 80 1016.6
20260905153617 29 348 0.0 6.4 0.00 0.00 0.00 80 1016.5
20260905153113 28 31 3.2 11.3 0.00 0.00 0.00 82 1016.5
20260905152608 28 48 4.8 12.9 0.00 0.00 0.00 83 1016.5
20260905152102 28 88 6.4 14.5 0.00 0.00 0.00 83 1016.3
20260905151557 27 131 3.2 9.7 0.00 0.00 0.00 83 1016.4
20260905151052 27 74 3.2 8.0 0.00 0.00 0.00 85 1016.5
20260905150548 28 1 0.0 4.8 0.00 0.00 0.00 81 1016.3
20260905150045 29 49 1.6 4.8 0.00 0.00 0.00 79 1016.3
20260905145539 28 89 0.0 3.2 0.00 0.00 0.00 82 1016.3
20260905145038 27 75 0.0 4.8 0.00 0.00 0.00 85 1016.3
20260905144533 27 10 1.6 8.0 0.00 0.00 0.00 85 1016.2
20260905144032 27 110 0.0 6.4 0.00 0.00 0.00 86 1016.2
20260905143532 26 80 3.2 16.1 0.00 0.00 0.00 88 1016.1
20260905143027 25 60 3.2 8.0 0.00 0.00 0.00 91 1016.2
20260905142525 25 323 4.8 9.7 0.00 0.00 0.00 91 1016.2
20260905142021 25 29 3.2 11.3 0.00 0.00 0.00 92 1015.9
20260905141515 25 3 0.0 14.5 0.00 0.00 0.00 91 1016.0
20260905141012 26 85 3.2 12.9 0.00 0.00 0.00 90 1016.2
20260905140507 26 6 0.0 4.8 0.00 0.00 0.00 89 1016.0
20260905140006 27 70 4.8 6.4 0.00 0.00 0.00 87 1016.0
20260905135501 27 35 4.8 8.0 0.00 0.00 0.00 87 1015.7
20260905134956 27 19 3.2 6.4 0.00 0.00 0.00 87 1015.6
20260905134455 27 31 6.4 11.3 0.00 0.00 0.00 87 1015.6
20260905133954 27 58 9.7 14.5 0.00 0.00 0.00 86 1015.7
20260905133444 27 100 1.6 8.0 0.00 0.00 0.00 89 1015.7
20260905132944 26 49 11.3 11.3 0.00 0.00 0.00 88 1015.7
20260905132439 27 78 9.7 14.5 0.00 0.00 0.00 86 1015.9
20260905131933 28 5 0.0 3.2 0.00 0.00 0.00 85 1016.1
20260905131430 27 326 0.0 3.2 0.00 0.00 0.00 87 1016.1
20260905130924 27 77 3.2 6.4 0.00 0.00 0.00 87 1015.9
20260905130423 27 230 0.0 8.0 0.00 0.00 0.00 88 1015.6
20260905125918 26 62 0.0 4.8 0.00 0.00 0.00 90 1015.4
20260905125413 26 59 6.4 8.0 0.00 0.00 0.00 90 1015.4
20260905124908 26 81 3.2 8.0 0.00 0.00 0.00 90 1015.2